Time,TemperatureF,DewpointF,PressureIn,WindDirection,WindDirectionDegrees,WindSpeedMPH,WindSpeedGustMPH,Humidity,HourlyPrecipIn,Conditions,Clouds,dailyrainin,SoftwareType,DateUTC
2013-06-18 00:02:00,76.5,37.0,29.60,SW,225,12.0,-999.0,24,0.00,,,0.00,Wunderground v.1.15,2013-06-18 07:02:00,
2013-06-18 00:05:00,77.2,38.6,29.61,SSW,212,11.0,21.0,25,0.00,,,0.00,Wunderground v.1.15,2013-06-18 07:05:00,
2013-06-18 00:07:00,76.5,37.0,29.60,SW,225,12.0,-999.0,24,0.00,,,0.00,Wunderground v.1.15,2013-06-18 07:07:00,
2013-06-18 00:12:00,76.1,36.7,29.60,SW,225,12.0,-999.0,24,0.00,,,0.00,Wunderground v.1.15,2013-06-18 07:12:00,
2013-06-18 00:15:00,77.4,38.8,29.61,South,182,8.0,18.0,25,0.00,,,0.00,Wunderground v.1.15,2013-06-18 07:15:00,
2013-06-18 00:17:00,76.3,36.8,29.59,SW,225,12.0,-999.0,24,0.00,,,0.00,Wunderground v.1.15,2013-06-18 07:17:00,
2013-06-18 00:22:00,76.3,35.8,29.59,SW,225,11.0,-999.0,23,0.00,,,0.00,Wunderground v.1.15,2013-06-18 07:22:00,
2013-06-18 00:25:00,77.2,38.6,29.62,SW,225,6.0,19.0,25,0.00,,,0.00,Wunderground v.1.15,2013-06-18 07:25:00,
2013-06-18 00:27:00,76.3,35.8,29.59,SW,225,10.0,-999.0,23,0.00,,,0.00,Wunderground v.1.15,2013-06-18 07:27:00,
2013-06-18 00:30:00,77.2,38.6,29.62,SW,224,8.0,20.0,25,0.00,,,0.00,Wunderground v.1.15,2013-06-18 07:30:00,
2013-06-18 00:32:00,76.3,35.8,29.59,SW,225,7.0,-999.0,23,0.00,,,0.00,Wunderground v.1.15,2013-06-18 07:32:00,
2013-06-18 00:37:00,76.1,35.6,29.59,SW,225,7.0,-999.0,23,0.00,,,0.00,Wunderground v.1.15,2013-06-18 07:37:00,
2013-06-18 00:40:00,77.0,38.5,29.61,SW,218,11.0,21.0,25,0.00,,,0.00,Wunderground v.1.15,2013-06-18 07:40:00,
2013-06-18 00:42:00,75.8,35.3,29.59,SW,225,7.0,-999.0,23,0.00,,,0.00,Wunderground v.1.15,2013-06-18 07:42:00,
2013-06-18 00:45:00,76.8,39.3,29.61,SSW,196,11.0,21.0,26,0.00,,,0.00,Wunderground v.1.15,2013-06-18 07:45:00,
2013-06-18 00:47:00,75.6,35.2,29.59,SW,225,5.0,-999.0,23,0.00,,,0.00,Wunderground v.1.15,2013-06-18 07:47:00,
2013-06-18 00:52:00,75.3,34.9,29.59,SW,225,7.0,-999.0,23,0.00,,,0.00,Wunderground v.1.15,2013-06-18 07:52:00,
2013-06-18 00:55:00,76.7,38.2,29.61,SSW,198,13.0,22.0,25,0.00,,,0.00,Wunderground v.1.15,2013-06-18 07:55:00,
2013-06-18 00:57:00,74.7,35.5,29.59,SW,225,7.0,-999.0,24,0.00,,,0.00,Wunderground v.1.15,2013-06-18 07:57:00,
2013-06-18 01:00:00,76.8,38.3,29.61,South,189,12.0,23.0,25,0.00,,,0.00,Wunderground v.1.15,2013-06-18 08:00:00,
2013-06-18 01:02:00,74.6,35.4,29.59,SW,225,6.0,-999.0,24,0.00,,,0.00,Wunderground v.1.15,2013-06-18 08:02:00,
2013-06-18 01:05:00,77.0,38.5,29.61,SW,219,10.0,23.0,25,0.00,,,0.00,Wunderground v.1.15,2013-06-18 08:05:00,
2013-06-18 01:07:00,74.7,34.4,29.59,SW,225,5.0,-999.0,23,0.00,,,0.00,Wunderground v.1.15,2013-06-18 08:07:00,
2013-06-18 01:12:00,75.1,34.8,29.59,SW,225,5.0,-999.0,23,0.00,,,0.00,Wunderground v.1.15,2013-06-18 08:12:00,
2013-06-18 01:15:00,76.3,38.9,29.61,SW,227,10.0,19.0,26,0.00,,,0.00,Wunderground v.1.15,2013-06-18 08:15:00,
2013-06-18 01:17:00,75.3,33.8,29.59,SW,225,6.0,-999.0,22,0.00,,,0.00,Wunderground v.1.15,2013-06-18 08:17:00,
2013-06-18 01:20:00,76.3,37.9,29.61,WSW,252,11.0,18.0,25,0.00,,,0.00,Wunderground v.1.15,2013-06-18 08:20:00,
2013-06-18 01:22:00,75.1,33.6,29.59,SW,225,3.0,-999.0,22,0.00,,,0.00,Wunderground v.1.15,2013-06-18 08:22:00,
2013-06-18 01:27:00,74.9,34.6,29.59,SW,225,8.0,-999.0,23,0.00,,,0.00,Wunderground v.1.15,2013-06-18 08:27:00,
2013-06-18 01:30:00,76.7,36.1,29.61,SW,221,11.0,11.0,23,0.00,,,0.00,Wunderground v.1.15,2013-06-18 08:30:00,
2013-06-18 01:32:00,75.3,33.8,29.59,SW,225,9.0,-999.0,22,0.00,,,0.00,Wunderground v.1.15,2013-06-18 08:32:00,
2013-06-18 01:35:00,77.2,36.5,29.60,SSW,211,8.0,17.0,23,0.00,,,0.00,Wunderground v.1.15,2013-06-18 08:35:00,
2013-06-18 01:37:00,75.3,33.8,29.59,SSW,203,4.0,-999.0,22,0.00,,,0.00,Wunderground v.1.15,2013-06-18 08:37:00,
2013-06-18 01:42:00,75.1,34.8,29.59,SSW,203,2.0,-999.0,23,0.00,,,0.00,Wunderground v.1.15,2013-06-18 08:42:00,
2013-06-18 01:45:00,77.0,36.3,29.60,SSW,196,5.0,15.0,23,0.00,,,0.00,Wunderground v.1.15,2013-06-18 08:45:00,
2013-06-18 01:47:00,74.6,34.3,29.58,SSW,203,4.0,-999.0,23,0.00,,,0.00,Wunderground v.1.15,2013-06-18 08:47:00,
2013-06-18 01:52:00,74.6,34.3,29.58,SW,225,6.0,-999.0,23,0.00,,,0.00,Wunderground v.1.15,2013-06-18 08:52:00,
2013-06-18 01:55:00,76.1,36.7,29.60,SSW,196,11.0,21.0,24,0.00,,,0.00,Wunderground v.1.15,2013-06-18 08:55:00,
2013-06-18 01:57:00,74.7,33.3,29.58,SSW,203,5.0,-999.0,22,0.00,,,0.00,Wunderground v.1.15,2013-06-18 08:57:00,
2013-06-18 02:00:00,76.3,36.8,29.60,SW,223,12.0,19.0,24,0.00,,,0.00,Wunderground v.1.15,2013-06-18 09:00:00,
2013-06-18 02:02:00,74.6,34.3,29.58,SW,225,6.0,-999.0,23,0.00,,,0.00,Wunderground v.1.15,2013-06-18 09:02:00,
2013-06-18 02:05:00,76.3,35.8,29.59,SSW,198,12.0,21.0,23,0.00,,,0.00,Wunderground v.1.15,2013-06-18 09:05:00,
2013-06-18 02:07:00,74.4,34.2,29.58,SSW,203,5.0,-999.0,23,0.00,,,0.00,Wunderground v.1.15,2013-06-18 09:07:00,
2013-06-18 02:12:00,74.2,34.0,29.58,SSW,203,3.0,-999.0,23,0.00,,,0.00,Wunderground v.1.15,2013-06-18 09:12:00,
2013-06-18 02:15:00,76.3,35.8,29.59,SSW,209,10.0,20.0,23,0.00,,,0.00,Wunderground v.1.15,2013-06-18 09:15:00,
2013-06-18 02:17:00,74.4,33.1,29.59,SSW,203,4.0,-999.0,22,0.00,,,0.00,Wunderground v.1.15,2013-06-18 09:17:00,
2013-06-18 02:20:00,76.1,35.6,29.59,WSW,238,7.0,14.0,23,0.00,,,0.00,Wunderground v.1.15,2013-06-18 09:20:00,
2013-06-18 02:22:00,74.0,33.8,29.59,SSW,203,5.0,-999.0,23,0.00,,,0.00,Wunderground v.1.15,2013-06-18 09:22:00,
2013-06-18 02:25:00,75.8,35.3,29.59,SW,229,7.0,14.0,23,0.00,,,0.00,Wunderground v.1.15,2013-06-18 09:25:00,
2013-06-18 02:27:00,73.9,34.8,29.59,SW,225,6.0,-999.0,24,0.00,,,0.00,Wunderground v.1.15,2013-06-18 09:27:00,
2013-06-18 02:32:00,74.0,33.8,29.59,SW,225,9.0,-999.0,23,0.00,,,0.00,Wunderground v.1.15,2013-06-18 09:32:00,
2013-06-18 02:35:00,75.3,34.9,29.59,WSW,238,6.0,14.0,23,0.00,,,0.00,Wunderground v.1.15,2013-06-18 09:35:00,
2013-06-18 02:37:00,74.0,33.8,29.59,SW,225,5.0,-999.0,23,0.00,,,0.00,Wunderground v.1.15,2013-06-18 09:37:00,
2013-06-18 02:42:00,74.0,32.7,29.59,SSW,203,4.0,-999.0,22,0.00,,,0.00,Wunderground v.1.15,2013-06-18 09:42:00,
2013-06-18 02:45:00,74.6,35.4,29.59,WSW,240,6.0,14.0,24,0.00,,,0.00,Wunderground v.1.15,2013-06-18 09:45:00,
2013-06-18 02:47:00,74.0,31.6,29.58,SSW,203,2.0,-999.0,21,0.00,,,0.00,Wunderground v.1.15,2013-06-18 09:47:00,
2013-06-18 02:50:00,74.6,35.4,29.59,SW,217,6.0,14.0,24,0.00,,,0.00,Wunderground v.1.15,2013-06-18 09:50:00,
2013-06-18 02:52:00,74.2,30.5,29.58,SW,225,3.0,-999.0,20,0.00,,,0.00,Wunderground v.1.15,2013-06-18 09:52:00,
2013-06-18 02:57:00,74.4,31.9,29.58,SW,225,3.0,-999.0,21,0.00,,,0.00,Wunderground v.1.15,2013-06-18 09:57:00,
2013-06-18 03:00:00,75.3,33.8,29.59,SSW,207,5.0,5.0,22,0.00,,,0.00,Wunderground v.1.15,2013-06-18 10:00:00,
2013-06-18 03:02:00,74.2,32.9,29.58,SW,225,6.0,-999.0,22,0.00,,,0.00,Wunderground v.1.15,2013-06-18 10:02:00,
2013-06-18 03:05:00,75.1,33.6,29.59,SW,229,4.0,11.0,22,0.00,,,0.00,Wunderground v.1.15,2013-06-18 10:05:00,
2013-06-18 03:07:00,74.4,31.9,29.58,SW,225,5.0,-999.0,21,0.00,,,0.00,Wunderground v.1.15,2013-06-18 10:07:00,
2013-06-18 03:12:00,74.4,31.9,29.58,SSW,203,1.0,-999.0,21,0.00,,,0.00,Wunderground v.1.15,2013-06-18 10:12:00,
2013-06-18 03:15:00,75.1,34.8,29.59,WSW,245,8.0,15.0,23,0.00,,,0.00,Wunderground v.1.15,2013-06-18 10:15:00,
2013-06-18 03:17:00,73.9,31.5,29.58,SSW,203,2.0,-999.0,21,0.00,,,0.00,Wunderground v.1.15,2013-06-18 10:17:00,
2013-06-18 03:20:00,75.4,33.9,29.59,SSW,204,7.0,7.0,22,0.00,,,0.00,Wunderground v.1.15,2013-06-18 10:20:00,
2013-06-18 03:22:00,73.7,32.5,29.58,SSW,203,1.0,-999.0,22,0.00,,,0.00,Wunderground v.1.15,2013-06-18 10:22:00,
2013-06-18 03:25:00,75.1,34.8,29.59,SSW,202,4.0,16.0,23,0.00,,,0.00,Wunderground v.1.15,2013-06-18 10:25:00,
2013-06-18 03:27:00,73.9,30.3,29.58,SSW,203,2.0,-999.0,20,0.00,,,0.00,Wunderground v.1.15,2013-06-18 10:27:00,
2013-06-18 03:32:00,73.9,30.3,29.58,SW,225,2.0,-999.0,20,0.00,,,0.00,Wunderground v.1.15,2013-06-18 10:32:00,
2013-06-18 03:35:00,74.6,34.3,29.58,SSW,208,4.0,11.0,23,0.00,,,0.00,Wunderground v.1.15,2013-06-18 10:35:00,
2013-06-18 03:37:00,73.7,31.3,29.58,SW,225,4.0,-999.0,21,0.00,,,0.00,Wunderground v.1.15,2013-06-18 10:37:00,
2013-06-18 03:42:00,73.3,32.1,29.58,SSW,203,6.0,-999.0,22,0.00,,,0.00,Wunderground v.1.15,2013-06-18 10:42:00,
2013-06-18 03:45:00,74.6,33.2,29.58,South,181,6.0,15.0,22,0.00,,,0.00,Wunderground v.1.15,2013-06-18 10:45:00,
2013-06-18 03:47:00,73.2,32.1,29.58,SSW,203,3.0,-999.0,22,0.00,,,0.00,Wunderground v.1.15,2013-06-18 10:47:00,
2013-06-18 03:50:00,74.4,34.2,29.58,SW,235,5.0,5.0,23,0.00,,,0.00,Wunderground v.1.15,2013-06-18 10:50:00,
2013-06-18 03:52:00,73.3,32.1,29.58,SW,225,4.0,-999.0,22,0.00,,,0.00,Wunderground v.1.15,2013-06-18 10:52:00,
2013-06-18 03:57:00,73.3,32.1,29.58,SSW,203,2.0,-999.0,22,0.00,,,0.00,Wunderground v.1.15,2013-06-18 10:57:00,
2013-06-18 04:00:00,74.4,33.1,29.58,South,191,4.0,4.0,22,0.00,,,0.00,Wunderground v.1.15,2013-06-18 11:00:00,
2013-06-18 04:02:00,73.2,32.1,29.59,SSW,203,4.0,-999.0,22,0.00,,,0.00,Wunderground v.1.15,2013-06-18 11:02:00,
2013-06-18 04:05:00,74.0,34.9,29.59,SW,219,4.0,12.0,24,0.00,,,0.00,Wunderground v.1.15,2013-06-18 11:05:00,
2013-06-18 04:07:00,73.0,30.7,29.59,SSW,203,0.0,-999.0,21,0.00,,,0.00,Wunderground v.1.15,2013-06-18 11:07:00,
2013-06-18 04:12:00,73.5,32.3,29.59,SSW,203,1.0,-999.0,22,0.00,,,0.00,Wunderground v.1.15,2013-06-18 11:12:00,
2013-06-18 04:15:00,74.0,33.8,29.59,SW,221,7.0,14.0,23,0.00,,,0.00,Wunderground v.1.15,2013-06-18 11:15:00,
2013-06-18 04:17:00,73.0,31.9,29.59,SSW,203,1.0,-999.0,22,0.00,,,0.00,Wunderground v.1.15,2013-06-18 11:17:00,
2013-06-18 04:22:00,73.2,32.1,29.59,SSW,203,4.0,-999.0,22,0.00,,,0.00,Wunderground v.1.15,2013-06-18 11:22:00,
2013-06-18 04:25:00,74.0,32.7,29.59,South,186,6.0,13.0,22,0.00,,,0.00,Wunderground v.1.15,2013-06-18 11:25:00,
2013-06-18 04:27:00,73.7,31.3,29.59,SSW,203,3.0,-999.0,21,0.00,,,0.00,Wunderground v.1.15,2013-06-18 11:27:00,
2013-06-18 04:32:00,73.9,32.6,29.60,SSW,203,2.0,-999.0,22,0.00,,,0.00,Wunderground v.1.15,2013-06-18 11:32:00,
2013-06-18 04:35:00,74.0,31.6,29.58,SSW,202,3.0,4.0,21,0.00,,,0.00,Wunderground v.1.15,2013-06-18 11:35:00,
2013-06-18 04:37:00,73.9,31.5,29.60,SSW,203,2.0,-999.0,21,0.00,,,0.00,Wunderground v.1.15,2013-06-18 11:37:00,
2013-06-18 04:40:00,74.4,30.7,29.58,SW,219,3.0,10.0,20,0.00,,,0.00,Wunderground v.1.15,2013-06-18 11:40:00,
2013-06-18 04:42:00,74.2,31.7,29.60,SSW,203,2.0,-999.0,21,0.00,,,0.00,Wunderground v.1.15,2013-06-18 11:42:00,
2013-06-18 04:47:00,74.4,31.9,29.59,SSW,203,1.0,-999.0,21,0.00,,,0.00,Wunderground v.1.15,2013-06-18 11:47:00,
2013-06-18 04:50:00,74.4,31.9,29.58,South,188,5.0,5.0,21,0.00,,,0.00,Wunderground v.1.15,2013-06-18 11:50:00,
2013-06-18 04:52:00,74.6,32.1,29.59,SSW,203,3.0,-999.0,21,0.00,,,0.00,Wunderground v.1.15,2013-06-18 11:52:00,
2013-06-18 04:55:00,74.4,30.7,29.58,SSW,196,4.0,14.0,20,0.00,,,0.00,Wunderground v.1.15,2013-06-18 11:55:00,
2013-06-18 04:57:00,74.9,32.3,29.59,SSW,203,2.0,-999.0,21,0.00,,,0.00,Wunderground v.1.15,2013-06-18 11:57:00,
2013-06-18 05:02:00,74.9,32.3,29.60,SSW,203,4.0,-999.0,21,0.00,,,0.00,Wunderground v.1.15,2013-06-18 12:02:00,
2013-06-18 05:05:00,73.7,31.3,29.58,SSW,196,2.0,7.0,21,0.00,,,0.00,Wunderground v.1.15,2013-06-18 12:05:00,
2013-06-18 05:07:00,74.9,32.3,29.60,SSW,203,7.0,-999.0,21,0.00,,,0.00,Wunderground v.1.15,2013-06-18 12:07:00,
2013-06-18 05:12:00,74.4,34.2,29.60,SSW,203,2.0,-999.0,23,0.00,,,0.00,Wunderground v.1.15,2013-06-18 12:12:00,
2013-06-18 05:15:00,73.7,30.1,29.58,SW,217,2.0,7.0,20,0.00,,,0.00,Wunderground v.1.15,2013-06-18 12:15:00,
2013-06-18 05:17:00,74.2,34.0,29.60,SSW,203,2.0,-999.0,23,0.00,,,0.00,Wunderground v.1.15,2013-06-18 12:17:00,
2013-06-18 05:22:00,74.6,33.2,29.60,SSW,203,2.0,-999.0,22,0.00,,,0.00,Wunderground v.1.15,2013-06-18 12:22:00,
2013-06-18 05:25:00,73.5,32.3,29.58,SSW,196,4.0,11.0,22,0.00,,,0.00,Wunderground v.1.15,2013-06-18 12:25:00,
2013-06-18 05:27:00,75.1,33.6,29.60,SSW,203,1.0,-999.0,22,0.00,,,0.00,Wunderground v.1.15,2013-06-18 12:27:00,
2013-06-18 05:32:00,75.4,33.9,29.61,SSW,203,1.0,-999.0,22,0.00,,,0.00,Wunderground v.1.15,2013-06-18 12:32:00,
2013-06-18 05:35:00,73.3,31.0,29.58,SW,226,4.0,9.0,21,0.00,,,0.00,Wunderground v.1.15,2013-06-18 12:35:00,
2013-06-18 05:37:00,75.8,34.2,29.61,SSW,203,2.0,-999.0,22,0.00,,,0.00,Wunderground v.1.15,2013-06-18 12:37:00,
2013-06-18 05:40:00,73.3,32.1,29.58,SW,234,3.0,3.0,22,0.00,,,0.00,Wunderground v.1.15,2013-06-18 12:40:00,
2013-06-18 05:42:00,76.1,34.5,29.61,SSW,203,2.0,-999.0,22,0.00,,,0.00,Wunderground v.1.15,2013-06-18 12:42:00,
2013-06-18 05:45:00,73.2,32.1,29.58,South,180,3.0,7.0,22,0.00,,,0.00,Wunderground v.1.15,2013-06-18 12:45:00,
2013-06-18 05:47:00,76.5,33.6,29.61,SSW,203,4.0,-999.0,21,0.00,,,0.00,Wunderground v.1.15,2013-06-18 12:47:00,
2013-06-18 05:52:00,76.8,33.9,29.61,SSW,203,6.0,-999.0,21,0.00,,,0.00,Wunderground v.1.15,2013-06-18 12:52:00,
2013-06-18 05:55:00,73.5,31.1,29.59,SSW,205,1.0,6.0,21,0.00,,,0.00,Wunderground v.1.15,2013-06-18 12:55:00,
2013-06-18 05:57:00,77.2,33.0,29.61,SSW,203,6.0,-999.0,20,0.00,,,0.00,Wunderground v.1.15,2013-06-18 12:57:00,
2013-06-18 06:02:00,77.2,34.2,29.61,SSW,203,4.0,-999.0,21,0.00,,,0.00,Wunderground v.1.15,2013-06-18 13:02:00,
2013-06-18 06:05:00,73.2,32.1,29.59,SW,220,2.0,3.0,22,0.00,,,0.00,Wunderground v.1.15,2013-06-18 13:05:00,
2013-06-18 06:07:00,77.6,32.1,29.61,SSW,203,7.0,-999.0,19,0.00,,,0.00,Wunderground v.1.15,2013-06-18 13:07:00,
2013-06-18 06:12:00,77.9,32.3,29.61,SSW,203,4.0,-999.0,19,0.00,,,0.00,Wunderground v.1.15,2013-06-18 13:12:00,
2013-06-18 06:15:00,73.7,32.5,29.59,SSW,204,3.0,14.0,22,0.00,,,0.00,Wunderground v.1.15,2013-06-18 13:15:00,
2013-06-18 06:17:00,78.1,33.7,29.61,SSW,203,3.0,-999.0,20,0.00,,,0.00,Wunderground v.1.15,2013-06-18 13:17:00,
2013-06-18 06:22:00,78.6,32.9,29.61,SSW,203,2.0,-999.0,19,0.00,,,0.00,Wunderground v.1.15,2013-06-18 13:22:00,
2013-06-18 06:25:00,74.0,31.6,29.60,SSW,207,2.0,13.0,21,0.00,,,0.00,Wunderground v.1.15,2013-06-18 13:25:00,
2013-06-18 06:27:00,79.0,33.2,29.61,SSW,203,4.0,-999.0,19,0.00,,,0.00,Wunderground v.1.15,2013-06-18 13:27:00,
2013-06-18 06:30:00,74.4,31.9,29.60,SSW,192,2.0,11.0,21,0.00,,,0.00,Wunderground v.1.15,2013-06-18 13:30:00,
2013-06-18 06:32:00,79.4,33.5,29.61,SSW,203,3.0,-999.0,19,0.00,,,0.00,Wunderground v.1.15,2013-06-18 13:32:00,
2013-06-18 06:37:00,79.6,33.7,29.61,SSW,203,3.0,-999.0,19,0.00,,,0.00,Wunderground v.1.15,2013-06-18 13:37:00,
2013-06-18 06:40:00,74.9,31.1,29.59,SSW,196,3.0,3.0,20,0.00,,,0.00,Wunderground v.1.15,2013-06-18 13:40:00,
2013-06-18 06:42:00,79.9,33.9,29.61,SSW,203,4.0,-999.0,19,0.00,,,0.00,Wunderground v.1.15,2013-06-18 13:42:00,
2013-06-18 06:45:00,74.9,33.5,29.59,SSW,209,3.0,9.0,22,0.00,,,0.00,Wunderground v.1.15,2013-06-18 13:45:00,
2013-06-18 06:47:00,80.5,33.1,29.62,SSW,203,4.0,-999.0,18,0.00,,,0.00,Wunderground v.1.15,2013-06-18 13:47:00,
2013-06-18 06:52:00,80.9,33.4,29.62,SSW,203,7.0,-999.0,18,0.00,,,0.00,Wunderground v.1.15,2013-06-18 13:52:00,
2013-06-18 06:55:00,74.7,34.4,29.60,SSW,197,6.0,12.0,23,0.00,,,0.00,Wunderground v.1.15,2013-06-18 13:55:00,
2013-06-18 06:57:00,81.6,32.5,29.62,SSW,203,5.0,-999.0,17,0.00,,,0.00,Wunderground v.1.15,2013-06-18 13:57:00,
2013-06-18 07:00:00,74.2,34.0,29.60,SSW,207,3.0,3.0,23,0.00,,,0.00,Wunderground v.1.15,2013-06-18 14:00:00,
2013-06-18 07:02:00,81.4,33.8,29.62,SSW,203,3.0,-999.0,18,0.00,,,0.00,Wunderground v.1.15,2013-06-18 14:02:00,
2013-06-18 07:05:00,74.4,33.1,29.60,SSW,205,2.0,10.0,22,0.00,,,0.00,Wunderground v.1.15,2013-06-18 14:05:00,
2013-06-18 07:07:00,81.8,32.7,29.62,SW,225,5.0,-999.0,17,0.00,,,0.00,Wunderground v.1.15,2013-06-18 14:07:00,
2013-06-18 07:12:00,82.2,31.5,29.62,SW,225,4.0,-999.0,16,0.00,,,0.00,Wunderground v.1.15,2013-06-18 14:12:00,
2013-06-18 07:15:00,75.3,34.9,29.60,South,186,1.0,5.0,23,0.00,,,0.00,Wunderground v.1.15,2013-06-18 14:15:00,
2013-06-18 07:17:00,82.8,33.5,29.62,SW,225,3.0,-999.0,17,0.00,,,0.00,Wunderground v.1.15,2013-06-18 14:17:00,
2013-06-18 07:20:00,75.6,34.1,29.61,SW,234,1.0,1.0,22,0.00,,,0.00,Wunderground v.1.15,2013-06-18 14:20:00,
2013-06-18 07:22:00,82.8,32.0,29.62,SW,225,3.0,-999.0,16,0.00,,,0.00,Wunderground v.1.15,2013-06-18 14:22:00,
2013-06-18 07:27:00,83.4,34.0,29.62,SW,225,3.0,-999.0,17,0.00,,,0.00,Wunderground v.1.15,2013-06-18 14:27:00,
2013-06-18 07:30:00,76.3,33.5,29.61,SW,225,3.0,12.0,21,0.00,,,0.00,Wunderground v.1.15,2013-06-18 14:30:00,
2013-06-18 07:32:00,83.4,34.0,29.62,SSW,203,5.0,-999.0,17,0.00,,,0.00,Wunderground v.1.15,2013-06-18 14:32:00,
2013-06-18 07:35:00,76.7,33.8,29.61,SSW,194,4.0,15.0,21,0.00,,,0.00,Wunderground v.1.15,2013-06-18 14:35:00,
2013-06-18 07:37:00,83.2,33.8,29.62,SW,225,2.0,-999.0,17,0.00,,,0.00,Wunderground v.1.15,2013-06-18 14:37:00,
2013-06-18 07:42:00,83.4,34.0,29.62,SSW,203,4.0,-999.0,17,0.00,,,0.00,Wunderground v.1.15,2013-06-18 14:42:00,
2013-06-18 07:45:00,77.2,34.2,29.61,SSW,193,5.0,15.0,21,0.00,,,0.00,Wunderground v.1.15,2013-06-18 14:45:00,
2013-06-18 07:47:00,83.6,34.2,29.61,SSW,203,2.0,-999.0,17,0.00,,,0.00,Wunderground v.1.15,2013-06-18 14:47:00,
2013-06-18 07:50:00,77.6,33.3,29.61,SSW,201,5.0,11.0,20,0.00,,,0.00,Wunderground v.1.15,2013-06-18 14:50:00,
2013-06-18 07:52:00,84.1,34.6,29.61,SSW,203,2.0,-999.0,17,0.00,,,0.00,Wunderground v.1.15,2013-06-18 14:52:00,
2013-06-18 07:57:00,84.5,33.4,29.61,SSW,203,3.0,-999.0,16,0.00,,,0.00,Wunderground v.1.15,2013-06-18 14:57:00,
2013-06-18 08:00:00,78.1,32.5,29.61,SSW,213,4.0,4.0,19,0.00,,,0.00,Wunderground v.1.15,2013-06-18 15:00:00,
2013-06-18 08:02:00,84.7,33.5,29.61,SSW,203,1.0,-999.0,16,0.00,,,0.00,Wunderground v.1.15,2013-06-18 15:02:00,
2013-06-18 08:05:00,78.5,32.8,29.61,SW,232,3.0,12.0,19,0.00,,,0.00,Wunderground v.1.15,2013-06-18 15:05:00,
2013-06-18 08:07:00,85.3,30.7,29.61,SSW,203,3.0,-999.0,14,0.00,,,0.00,Wunderground v.1.15,2013-06-18 15:07:00,
2013-06-18 08:12:00,86.1,31.3,29.61,WSW,248,3.0,-999.0,14,0.00,,,0.00,Wunderground v.1.15,2013-06-18 15:12:00,
2013-06-18 08:15:00,79.4,33.5,29.61,SSW,202,4.0,13.0,19,0.00,,,0.00,Wunderground v.1.15,2013-06-18 15:15:00,
2013-06-18 08:17:00,86.5,29.8,29.61,SSW,203,5.0,-999.0,13,0.00,,,0.00,Wunderground v.1.15,2013-06-18 15:17:00,
2013-06-18 08:20:00,79.6,33.7,29.61,SW,229,4.0,10.0,19,0.00,,,0.00,Wunderground v.1.15,2013-06-18 15:20:00,
2013-06-18 08:22:00,86.3,31.5,29.61,SSW,203,4.0,-999.0,14,0.00,,,0.00,Wunderground v.1.15,2013-06-18 15:22:00,
2013-06-18 08:27:00,86.5,31.6,29.61,SW,225,7.0,-999.0,14,0.00,,,0.00,Wunderground v.1.15,2013-06-18 15:27:00,
2013-06-18 08:30:00,80.3,34.3,29.61,SSW,202,3.0,11.0,19,0.00,,,0.00,Wunderground v.1.15,2013-06-18 15:30:00,
2013-06-18 08:32:00,86.7,28.0,29.61,SW,225,4.0,-999.0,12,0.00,,,0.00,Wunderground v.1.15,2013-06-18 15:32:00,
2013-06-18 08:37:00,87.0,30.2,29.61,SW,225,2.0,-999.0,13,0.00,,,0.00,Wunderground v.1.15,2013-06-18 15:37:00,
2013-06-18 08:40:00,81.2,33.6,29.62,SW,221,6.0,6.0,18,0.00,,,0.00,Wunderground v.1.15,2013-06-18 15:40:00,
2013-06-18 08:42:00,87.4,34.1,29.61,West,270,1.0,-999.0,15,0.00,,,0.00,Wunderground v.1.15,2013-06-18 15:42:00,
2013-06-18 08:45:00,81.4,33.8,29.62,SSW,213,4.0,11.0,18,0.00,,,0.00,Wunderground v.1.15,2013-06-18 15:45:00,
2013-06-18 08:47:00,88.0,32.8,29.61,West,270,1.0,-999.0,14,0.00,,,0.00,Wunderground v.1.15,2013-06-18 15:47:00,
2013-06-18 08:52:00,88.2,29.2,29.61,WNW,293,1.0,-999.0,12,0.00,,,0.00,Wunderground v.1.15,2013-06-18 15:52:00,
2013-06-18 08:55:00,82.0,32.9,29.62,SW,229,4.0,11.0,17,0.00,,,0.00,Wunderground v.1.15,2013-06-18 15:55:00,
2013-06-18 08:57:00,88.4,31.3,29.61,WNW,293,1.0,-999.0,13,0.00,,,0.00,Wunderground v.1.15,2013-06-18 15:57:00,
2013-06-18 09:00:00,82.8,33.5,29.62,South,188,4.0,4.0,17,0.00,,,0.00,Wunderground v.1.15,2013-06-18 16:00:00,
2013-06-18 09:02:00,89.0,29.8,29.60,SW,225,4.0,-999.0,12,0.00,,,0.00,Wunderground v.1.15,2013-06-18 16:02:00,
2013-06-18 09:05:00,83.0,33.7,29.62,SSW,207,3.0,7.0,17,0.00,,,0.00,Wunderground v.1.15,2013-06-18 16:05:00,
2013-06-18 09:07:00,88.8,29.6,29.60,WSW,248,2.0,-999.0,12,0.00,,,0.00,Wunderground v.1.15,2013-06-18 16:07:00,
2013-06-18 09:12:00,89.0,29.8,29.60,SW,225,1.0,-999.0,12,0.00,,,0.00,Wunderground v.1.15,2013-06-18 16:12:00,
2013-06-18 09:15:00,83.6,32.6,29.62,SSW,210,3.0,10.0,16,0.00,,,0.00,Wunderground v.1.15,2013-06-18 16:15:00,
2013-06-18 09:17:00,89.0,31.8,29.60,SW,225,2.0,-999.0,13,0.00,,,0.00,Wunderground v.1.15,2013-06-18 16:17:00,
2013-06-18 09:20:00,83.2,35.3,29.62,SW,228,3.0,3.0,18,0.00,,,0.00,Wunderground v.1.15,2013-06-18 16:20:00,
2013-06-18 09:22:00,89.3,33.8,29.60,SSW,203,3.0,-999.0,14,0.00,,,0.00,Wunderground v.1.15,2013-06-18 16:22:00,
2013-06-18 09:25:00,83.4,34.0,29.62,SSW,193,3.0,11.0,17,0.00,,,0.00,Wunderground v.1.15,2013-06-18 16:25:00,
2013-06-18 09:27:00,89.0,33.6,29.60,SSW,203,4.0,-999.0,14,0.00,,,0.00,Wunderground v.1.15,2013-06-18 16:27:00,
2013-06-18 09:32:00,88.8,35.2,29.60,SSW,203,1.0,-999.0,15,0.00,,,0.00,Wunderground v.1.15,2013-06-18 16:32:00,
2013-06-18 09:35:00,83.8,32.8,29.61,SSW,210,3.0,10.0,16,0.00,,,0.00,Wunderground v.1.15,2013-06-18 16:35:00,
2013-06-18 09:37:00,89.5,35.7,29.60,SW,225,0.0,-999.0,15,0.00,,,0.00,Wunderground v.1.15,2013-06-18 16:37:00,
2013-06-18 09:40:00,84.3,33.2,29.61,SW,216,3.0,10.0,16,0.00,,,0.00,Wunderground v.1.15,2013-06-18 16:40:00,
2013-06-18 09:42:00,89.7,34.2,29.60,SSW,203,2.0,-999.0,14,0.00,,,0.00,Wunderground v.1.15,2013-06-18 16:42:00,
2013-06-18 09:47:00,89.7,35.9,29.60,SSW,203,5.0,-999.0,15,0.00,,,0.00,Wunderground v.1.15,2013-06-18 16:47:00,
2013-06-18 09:50:00,85.3,30.7,29.61,SSW,209,2.0,9.0,14,0.00,,,0.00,Wunderground v.1.15,2013-06-18 16:50:00,
2013-06-18 09:52:00,89.9,34.3,29.60,SSW,203,1.0,-999.0,14,0.00,,,0.00,Wunderground v.1.15,2013-06-18 16:52:00,
2013-06-18 09:55:00,85.9,31.2,29.61,WSW,241,2.0,11.0,14,0.00,,,0.00,Wunderground v.1.15,2013-06-18 16:55:00,
2013-06-18 09:57:00,90.1,37.9,29.60,SSW,203,1.0,-999.0,16,0.00,,,0.00,Wunderground v.1.15,2013-06-18 16:57:00,
2013-06-18 10:02:00,90.1,34.5,29.59,SSW,203,3.0,-999.0,14,0.00,,,0.00,Wunderground v.1.15,2013-06-18 17:02:00,
2013-06-18 10:05:00,86.3,31.5,29.61,SSW,203,5.0,13.0,14,0.00,,,0.00,Wunderground v.1.15,2013-06-18 17:05:00,
2013-06-18 10:07:00,90.5,36.5,29.59,SSW,203,2.0,-999.0,15,0.00,,,0.00,Wunderground v.1.15,2013-06-18 17:07:00,
2013-06-18 10:12:00,91.0,33.3,29.59,SSW,203,2.0,-999.0,13,0.00,,,0.00,Wunderground v.1.15,2013-06-18 17:12:00,
2013-06-18 10:15:00,86.7,30.0,29.61,SW,227,5.0,12.0,13,0.00,,,0.00,Wunderground v.1.15,2013-06-18 17:15:00,
2013-06-18 10:17:00,92.1,32.2,29.58,SSW,203,5.0,-999.0,12,0.00,,,0.00,Wunderground v.1.15,2013-06-18 17:17:00,
2013-06-18 10:22:00,91.6,33.8,29.58,SSW,203,4.0,-999.0,13,0.00,,,0.00,Wunderground v.1.15,2013-06-18 17:22:00,
2013-06-18 10:25:00,87.4,34.1,29.61,WNW,292,3.0,9.0,15,0.00,,,0.00,Wunderground v.1.15,2013-06-18 17:25:00,
2013-06-18 10:27:00,91.6,29.6,29.58,SSW,203,4.0,-999.0,11,0.00,,,0.00,Wunderground v.1.15,2013-06-18 17:27:00,
2013-06-18 10:30:00,88.0,34.5,29.61,West,273,1.0,7.0,15,0.00,,,0.00,Wunderground v.1.15,2013-06-18 17:30:00,
2013-06-18 10:32:00,92.1,32.2,29.57,SSW,203,3.0,-999.0,12,0.00,,,0.00,Wunderground v.1.15,2013-06-18 17:32:00,
2013-06-18 10:37:00,92.3,36.2,29.57,South,180,1.0,-999.0,14,0.00,,,0.00,Wunderground v.1.15,2013-06-18 17:37:00,
2013-06-18 10:40:00,88.4,33.1,29.61,WNW,297,1.0,6.0,14,0.00,,,0.00,Wunderground v.1.15,2013-06-18 17:40:00,
2013-06-18 10:42:00,92.3,30.2,29.57,SSW,203,4.0,-999.0,11,0.00,,,0.00,Wunderground v.1.15,2013-06-18 17:42:00,
2013-06-18 10:45:00,88.8,29.6,29.61,SW,236,2.0,8.0,12,0.00,,,0.00,Wunderground v.1.15,2013-06-18 17:45:00,
2013-06-18 10:47:00,92.9,30.6,29.56,SSW,203,3.0,-999.0,11,0.00,,,0.00,Wunderground v.1.15,2013-06-18 17:47:00,
2013-06-18 10:52:00,93.6,31.2,29.56,SSW,203,5.0,-999.0,11,0.00,,,0.00,Wunderground v.1.15,2013-06-18 17:52:00,
2013-06-18 10:55:00,88.8,29.6,29.60,WSW,241,2.0,11.0,12,0.00,,,0.00,Wunderground v.1.15,2013-06-18 17:55:00,
2013-06-18 10:57:00,94.0,26.6,29.56,SSW,203,11.0,-999.0,9,0.00,,,0.00,Wunderground v.1.15,2013-06-18 17:57:00,
2013-06-18 11:00:00,89.0,31.8,29.60,SSW,208,1.0,5.0,13,0.00,,,0.00,Wunderground v.1.15,2013-06-18 18:00:00,
2013-06-18 11:02:00,93.4,23.3,29.56,SSW,203,7.0,-999.0,8,0.00,,,0.00,Wunderground v.1.15,2013-06-18 18:02:00,
2013-06-18 11:05:00,89.3,33.8,29.60,SW,230,1.0,10.0,14,0.00,,,0.00,Wunderground v.1.15,2013-06-18 18:05:00,
2013-06-18 11:07:00,93.8,23.6,29.56,SW,225,9.0,-999.0,8,0.00,,,0.00,Wunderground v.1.15,2013-06-18 18:07:00,
2013-06-18 11:12:00,94.7,21.1,29.56,SSW,203,8.0,-999.0,7,0.00,,,0.00,Wunderground v.1.15,2013-06-18 18:12:00,
2013-06-18 11:15:00,88.6,36.7,29.60,SSW,211,4.0,14.0,16,0.00,,,0.00,Wunderground v.1.15,2013-06-18 18:15:00,
2013-06-18 11:17:00,94.9,24.4,29.55,SW,225,7.0,-999.0,8,0.00,,,0.00,Wunderground v.1.15,2013-06-18 18:17:00,
2013-06-18 11:20:00,89.3,37.2,29.60,South,190,1.0,1.0,16,0.00,,,0.00,Wunderground v.1.15,2013-06-18 18:20:00,
2013-06-18 11:22:00,94.0,23.7,29.55,SSW,203,6.0,-999.0,8,0.00,,,0.00,Wunderground v.1.15,2013-06-18 18:22:00,
2013-06-18 11:25:00,89.7,32.3,29.60,SSW,209,1.0,3.0,13,0.00,,,0.00,Wunderground v.1.15,2013-06-18 18:25:00,
2013-06-18 11:27:00,94.7,27.1,29.55,SW,225,9.0,-999.0,9,0.00,,,0.00,Wunderground v.1.15,2013-06-18 18:27:00,
2013-06-18 11:32:00,95.4,24.8,29.54,SW,225,12.0,-999.0,8,0.00,,,0.00,Wunderground v.1.15,2013-06-18 18:32:00,
2013-06-18 11:35:00,89.9,36.1,29.60,SSE,163,3.0,13.0,15,0.00,,,0.00,Wunderground v.1.15,2013-06-18 18:35:00,
2013-06-18 11:37:00,94.3,24.0,29.54,SSW,203,12.0,-999.0,8,0.00,,,0.00,Wunderground v.1.15,2013-06-18 18:37:00,
2013-06-18 11:40:00,90.1,36.2,29.60,SSW,192,2.0,2.0,15,0.00,,,0.00,Wunderground v.1.15,2013-06-18 18:40:00,
2013-06-18 11:42:00,94.3,24.0,29.54,SSW,203,10.0,-999.0,8,0.00,,,0.00,Wunderground v.1.15,2013-06-18 18:42:00,
2013-06-18 11:47:00,94.0,20.6,29.54,SSW,203,12.0,-999.0,7,0.00,,,0.00,Wunderground v.1.15,2013-06-18 18:47:00,
2013-06-18 11:50:00,90.3,32.8,29.59,SSW,206,3.0,11.0,13,0.00,,,0.00,Wunderground v.1.15,2013-06-18 18:50:00,
2013-06-18 11:52:00,94.0,23.7,29.54,SSW,203,11.0,-999.0,8,0.00,,,0.00,Wunderground v.1.15,2013-06-18 18:52:00,
2013-06-18 11:55:00,90.5,34.8,29.59,SW,234,3.0,11.0,14,0.00,,,0.00,Wunderground v.1.15,2013-06-18 18:55:00,
2013-06-18 11:57:00,94.0,23.7,29.54,SSW,203,10.0,-999.0,8,0.00,,,0.00,Wunderground v.1.15,2013-06-18 18:57:00,
2013-06-18 12:02:00,94.7,24.3,29.53,SSW,203,13.0,-999.0,8,0.00,,,0.00,Wunderground v.1.15,2013-06-18 19:02:00,
2013-06-18 12:05:00,91.4,33.6,29.58,SW,219,5.0,17.0,13,0.00,,,0.00,Wunderground v.1.15,2013-06-18 19:05:00,
2013-06-18 12:07:00,93.8,23.6,29.53,SSW,203,14.0,-999.0,8,0.00,,,0.00,Wunderground v.1.15,2013-06-18 19:07:00,
2013-06-18 12:12:00,95.1,27.4,29.53,SW,225,14.0,-999.0,9,0.00,,,0.00,Wunderground v.1.15,2013-06-18 19:12:00,
2013-06-18 12:15:00,91.8,32.0,29.58,South,179,4.0,14.0,12,0.00,,,0.00,Wunderground v.1.15,2013-06-18 19:15:00,
2013-06-18 12:17:00,95.4,24.8,29.53,SW,225,15.0,-999.0,8,0.00,,,0.00,Wunderground v.1.15,2013-06-18 19:17:00,
2013-06-18 12:20:00,92.1,34.2,29.57,SE,140,3.0,3.0,13,0.00,,,0.00,Wunderground v.1.15,2013-06-18 19:20:00,
2013-06-18 12:22:00,94.9,27.2,29.53,SW,225,12.0,-999.0,9,0.00,,,0.00,Wunderground v.1.15,2013-06-18 19:22:00,
2013-06-18 12:27:00,94.9,24.4,29.53,SSW,203,14.0,-999.0,8,0.00,,,0.00,Wunderground v.1.15,2013-06-18 19:27:00,
2013-06-18 12:30:00,92.7,30.5,29.57,South,182,3.0,3.0,11,0.00,,,0.00,Wunderground v.1.15,2013-06-18 19:30:00,
2013-06-18 12:32:00,94.7,27.1,29.52,SSW,203,14.0,-999.0,9,0.00,,,0.00,Wunderground v.1.15,2013-06-18 19:32:00,
2013-06-18 12:37:00,94.3,26.8,29.52,SSW,203,17.0,-999.0,9,0.00,,,0.00,Wunderground v.1.15,2013-06-18 19:37:00,
2013-06-18 12:40:00,94.0,23.7,29.56,South,191,6.0,18.0,8,0.00,,,0.00,Wunderground v.1.15,2013-06-18 19:40:00,
2013-06-18 12:42:00,94.9,24.4,29.52,SW,225,16.0,-999.0,8,0.00,,,0.00,Wunderground v.1.15,2013-06-18 19:42:00,
2013-06-18 12:45:00,93.4,26.1,29.56,South,186,8.0,20.0,9,0.00,,,0.00,Wunderground v.1.15,2013-06-18 19:45:00,
2013-06-18 12:47:00,95.6,24.9,29.52,SW,225,15.0,-999.0,8,0.00,,,0.00,Wunderground v.1.15,2013-06-18 19:47:00,
2013-06-18 12:52:00,94.7,27.1,29.52,SW,225,13.0,-999.0,9,0.00,,,0.00,Wunderground v.1.15,2013-06-18 19:52:00,
2013-06-18 12:55:00,94.5,20.9,29.56,SW,225,9.0,15.0,7,0.00,,,0.00,Wunderground v.1.15,2013-06-18 19:55:00,
2013-06-18 12:57:00,94.5,26.9,29.52,SSW,203,14.0,-999.0,9,0.00,,,0.00,Wunderground v.1.15,2013-06-18 19:57:00,
2013-06-18 13:00:00,94.7,21.1,29.56,SW,232,8.0,17.0,7,0.00,,,0.00,Wunderground v.1.15,2013-06-18 20:00:00,
2013-06-18 13:02:00,94.9,24.4,29.52,SW,225,14.0,-999.0,8,0.00,,,0.00,Wunderground v.1.15,2013-06-18 20:02:00,
2013-06-18 13:05:00,94.3,24.0,29.55,South,191,7.0,17.0,8,0.00,,,0.00,Wunderground v.1.15,2013-06-18 20:05:00,
2013-06-18 13:07:00,94.5,24.1,29.52,SW,225,15.0,-999.0,8,0.00,,,0.00,Wunderground v.1.15,2013-06-18 20:07:00,
2013-06-18 13:12:00,94.0,23.7,29.52,SSW,203,15.0,-999.0,8,0.00,,,0.00,Wunderground v.1.15,2013-06-18 20:12:00,
2013-06-18 13:15:00,95.4,24.8,29.55,SSW,205,9.0,21.0,8,0.00,,,0.00,Wunderground v.1.15,2013-06-18 20:15:00,
2013-06-18 13:17:00,94.7,24.3,29.52,SW,225,13.0,-999.0,8,0.00,,,0.00,Wunderground v.1.15,2013-06-18 20:17:00,
2013-06-18 13:20:00,94.5,20.9,29.54,SSW,198,12.0,12.0,7,0.00,,,0.00,Wunderground v.1.15,2013-06-18 20:20:00,
2013-06-18 13:22:00,95.1,27.4,29.52,SW,225,13.0,-999.0,9,0.00,,,0.00,Wunderground v.1.15,2013-06-18 20:22:00,
2013-06-18 13:27:00,95.1,24.5,29.52,SW,225,14.0,-999.0,8,0.00,,,0.00,Wunderground v.1.15,2013-06-18 20:27:00,
2013-06-18 13:30:00,94.3,20.8,29.54,SSW,196,11.0,21.0,7,0.00,,,0.00,Wunderground v.1.15,2013-06-18 20:30:00,
2013-06-18 13:32:00,94.7,27.1,29.52,SW,225,15.0,-999.0,9,0.00,,,0.00,Wunderground v.1.15,2013-06-18 20:32:00,
2013-06-18 13:35:00,93.8,20.4,29.54,SW,217,11.0,22.0,7,0.00,,,0.00,Wunderground v.1.15,2013-06-18 20:35:00,
2013-06-18 13:37:00,94.9,27.2,29.52,SW,225,17.0,-999.0,9,0.00,,,0.00,Wunderground v.1.15,2013-06-18 20:37:00,
2013-06-18 13:42:00,94.9,27.2,29.52,SW,225,17.0,-999.0,9,0.00,,,0.00,Wunderground v.1.15,2013-06-18 20:42:00,
2013-06-18 13:45:00,94.9,24.4,29.54,SSW,207,11.0,21.0,8,0.00,,,0.00,Wunderground v.1.15,2013-06-18 20:45:00,
2013-06-18 13:47:00,95.1,27.4,29.52,WSW,248,15.0,-999.0,9,0.00,,,0.00,Wunderground v.1.15,2013-06-18 20:47:00,
2013-06-18 13:50:00,94.0,23.7,29.53,South,176,13.0,13.0,8,0.00,,,0.00,Wunderground v.1.15,2013-06-18 20:50:00,
2013-06-18 13:52:00,94.9,27.2,29.52,SW,225,16.0,-999.0,9,0.00,,,0.00,Wunderground v.1.15,2013-06-18 20:52:00,
2013-06-18 13:57:00,94.9,27.2,29.52,WSW,248,14.0,-999.0,9,0.00,,,0.00,Wunderground v.1.15,2013-06-18 20:57:00,
2013-06-18 14:00:00,95.1,24.5,29.53,SW,227,14.0,22.0,8,0.00,,,0.00,Wunderground v.1.15,2013-06-18 21:00:00,
2013-06-18 14:02:00,94.5,26.9,29.52,SW,225,16.0,-999.0,9,0.00,,,0.00,Wunderground v.1.15,2013-06-18 21:02:00,
2013-06-18 14:05:00,94.7,27.1,29.53,WSW,242,14.0,24.0,9,0.00,,,0.00,Wunderground v.1.15,2013-06-18 21:05:00,
2013-06-18 14:07:00,94.3,26.8,29.52,WSW,248,18.0,-999.0,9,0.00,,,0.00,Wunderground v.1.15,2013-06-18 21:07:00,
2013-06-18 14:12:00,94.5,26.9,29.52,West,270,15.0,-999.0,9,0.00,,,0.00,Wunderground v.1.15,2013-06-18 21:12:00,
2013-06-18 14:15:00,94.9,27.2,29.53,SSW,201,14.0,24.0,9,0.00,,,0.00,Wunderground v.1.15,2013-06-18 21:15:00,
2013-06-18 14:17:00,94.5,26.9,29.52,West,270,14.0,-999.0,9,0.00,,,0.00,Wunderground v.1.15,2013-06-18 21:17:00,
2013-06-18 14:20:00,94.7,27.1,29.52,SSE,166,15.0,23.0,9,0.00,,,0.00,Wunderground v.1.15,2013-06-18 21:20:00,
2013-06-18 14:22:00,94.3,26.8,29.52,West,270,15.0,-999.0,9,0.00,,,0.00,Wunderground v.1.15,2013-06-18 21:22:00,
2013-06-18 14:25:00,94.3,24.0,29.52,SW,225,16.0,25.0,8,0.00,,,0.00,Wunderground v.1.15,2013-06-18 21:25:00,
2013-06-18 14:27:00,94.0,26.6,29.52,West,270,14.0,-999.0,9,0.00,,,0.00,Wunderground v.1.15,2013-06-18 21:27:00,
2013-06-18 14:32:00,94.0,26.6,29.52,WSW,248,11.0,-999.0,9,0.00,,,0.00,Wunderground v.1.15,2013-06-18 21:32:00,
2013-06-18 14:35:00,94.9,27.2,29.52,SSE,163,15.0,27.0,9,0.00,,,0.00,Wunderground v.1.15,2013-06-18 21:35:00,
2013-06-18 14:37:00,94.5,24.1,29.52,WSW,248,13.0,-999.0,8,0.00,,,0.00,Wunderground v.1.15,2013-06-18 21:37:00,
2013-06-18 14:40:00,94.7,27.1,29.52,SSW,205,14.0,22.0,9,0.00,,,0.00,Wunderground v.1.15,2013-06-18 21:40:00,
2013-06-18 14:42:00,94.0,26.6,29.52,West,270,12.0,-999.0,9,0.00,,,0.00,Wunderground v.1.15,2013-06-18 21:42:00,
2013-06-18 14:47:00,94.0,26.6,29.52,West,270,13.0,-999.0,9,0.00,,,0.00,Wunderground v.1.15,2013-06-18 21:47:00,
2013-06-18 14:50:00,94.9,24.4,29.52,SSW,199,13.0,13.0,8,0.00,,,0.00,Wunderground v.1.15,2013-06-18 21:50:00,
2013-06-18 14:52:00,93.4,26.1,29.52,SW,225,13.0,-999.0,9,0.00,,,0.00,Wunderground v.1.15,2013-06-18 21:52:00,
2013-06-18 14:57:00,93.4,26.1,29.52,WSW,248,13.0,-999.0,9,0.00,,,0.00,Wunderground v.1.15,2013-06-18 21:57:00,
2013-06-18 15:00:00,94.3,24.0,29.52,WSW,244,14.0,14.0,8,0.00,,,0.00,Wunderground v.1.15,2013-06-18 22:00:00,
2013-06-18 15:02:00,93.4,26.1,29.52,SW,225,13.0,-999.0,9,0.00,,,0.00,Wunderground v.1.15,2013-06-18 22:02:00,
2013-06-18 15:05:00,94.9,24.4,29.52,SW,219,13.0,16.0,8,0.00,,,0.00,Wunderground v.1.15,2013-06-18 22:05:00,
2013-06-18 15:07:00,93.2,26.0,29.52,WSW,248,13.0,-999.0,9,0.00,,,0.00,Wunderground v.1.15,2013-06-18 22:07:00,
2013-06-18 15:12:00,92.7,22.8,29.52,SW,225,14.0,-999.0,8,0.00,,,0.00,Wunderground v.1.15,2013-06-18 22:12:00,
2013-06-18 15:15:00,94.7,27.1,29.52,SW,217,14.0,22.0,9,0.00,,,0.00,Wunderground v.1.15,2013-06-18 22:15:00,
2013-06-18 15:17:00,92.5,25.4,29.52,SW,225,12.0,-999.0,9,0.00,,,0.00,Wunderground v.1.15,2013-06-18 22:17:00,
2013-06-18 15:20:00,94.9,27.2,29.52,WSW,240,15.0,24.0,9,0.00,,,0.00,Wunderground v.1.15,2013-06-18 22:20:00,
2013-06-18 15:22:00,92.1,25.1,29.52,SW,225,14.0,-999.0,9,0.00,,,0.00,Wunderground v.1.15,2013-06-18 22:22:00,
2013-06-18 15:25:00,94.9,27.2,29.52,SW,225,17.0,30.0,9,0.00,,,0.00,Wunderground v.1.15,2013-06-18 22:25:00,
2013-06-18 15:27:00,92.1,25.1,29.52,WSW,248,16.0,-999.0,9,0.00,,,0.00,Wunderground v.1.15,2013-06-18 22:27:00,
2013-06-18 15:32:00,91.2,24.5,29.52,SW,225,16.0,-999.0,9,0.00,,,0.00,Wunderground v.1.15,2013-06-18 22:32:00,
2013-06-18 15:35:00,95.4,27.6,29.52,WSW,245,16.0,25.0,9,0.00,,,0.00,Wunderground v.1.15,2013-06-18 22:35:00,
2013-06-18 15:37:00,91.0,24.3,29.52,SW,225,14.0,-999.0,9,0.00,,,0.00,Wunderground v.1.15,2013-06-18 22:37:00,
2013-06-18 15:40:00,94.9,27.2,29.52,SSW,201,15.0,15.0,9,0.00,,,0.00,Wunderground v.1.15,2013-06-18 22:40:00,
2013-06-18 15:42:00,91.0,24.3,29.52,SW,225,14.0,-999.0,9,0.00,,,0.00,Wunderground v.1.15,2013-06-18 22:42:00,
2013-06-18 15:45:00,94.3,26.8,29.52,WSW,252,15.0,18.0,9,0.00,,,0.00,Wunderground v.1.15,2013-06-18 22:45:00,
2013-06-18 15:47:00,91.0,24.3,29.51,SW,225,13.0,-999.0,9,0.00,,,0.00,Wunderground v.1.15,2013-06-18 22:47:00,
2013-06-18 15:52:00,90.5,26.5,29.51,SW,225,14.0,-999.0,10,0.00,,,0.00,Wunderground v.1.15,2013-06-18 22:52:00,
2013-06-18 15:55:00,94.5,26.9,29.52,WSW,254,16.0,18.0,9,0.00,,,0.00,Wunderground v.1.15,2013-06-18 22:55:00,
2013-06-18 15:57:00,89.7,28.2,29.51,SW,225,16.0,-999.0,11,0.00,,,0.00,Wunderground v.1.15,2013-06-18 22:57:00,
2013-06-18 16:02:00,89.7,25.9,29.52,SW,225,15.0,-999.0,10,0.00,,,0.00,Wunderground v.1.15,2013-06-18 23:02:00,
2013-06-18 16:05:00,94.3,29.4,29.52,West,273,15.0,18.0,10,0.00,,,0.00,Wunderground v.1.15,2013-06-18 23:05:00,
2013-06-18 16:07:00,89.0,27.7,29.52,SW,225,14.0,-999.0,11,0.00,,,0.00,Wunderground v.1.15,2013-06-18 23:07:00,
2013-06-18 16:12:00,88.6,27.3,29.52,SW,225,15.0,-999.0,11,0.00,,,0.00,Wunderground v.1.15,2013-06-18 23:12:00,
2013-06-18 16:15:00,93.8,26.4,29.52,WSW,255,14.0,24.0,9,0.00,,,0.00,Wunderground v.1.15,2013-06-18 23:15:00,
2013-06-18 16:17:00,88.4,27.2,29.52,SW,225,12.0,-999.0,11,0.00,,,0.00,Wunderground v.1.15,2013-06-18 23:17:00,
2013-06-18 16:20:00,94.5,26.9,29.52,West,260,12.0,12.0,9,0.00,,,0.00,Wunderground v.1.15,2013-06-18 23:20:00,
2013-06-18 16:22:00,88.0,26.9,29.52,SW,225,12.0,-999.0,11,0.00,,,0.00,Wunderground v.1.15,2013-06-18 23:22:00,
2013-06-18 16:25:00,94.0,26.6,29.52,WSW,244,13.0,13.0,9,0.00,,,0.00,Wunderground v.1.15,2013-06-18 23:25:00,
2013-06-18 16:27:00,87.6,28.7,29.52,SW,225,13.0,-999.0,12,0.00,,,0.00,Wunderground v.1.15,2013-06-18 23:27:00,
2013-06-18 16:32:00,87.4,28.5,29.53,SW,225,13.0,-999.0,12,0.00,,,0.00,Wunderground v.1.15,2013-06-18 23:32:00,
2013-06-18 16:35:00,93.6,26.3,29.52,SSW,207,13.0,22.0,9,0.00,,,0.00,Wunderground v.1.15,2013-06-18 23:35:00,
2013-06-18 16:37:00,87.4,28.5,29.53,SW,225,12.0,-999.0,12,0.00,,,0.00,Wunderground v.1.15,2013-06-18 23:37:00,
2013-06-18 16:42:00,87.0,28.2,29.53,SW,225,12.0,-999.0,12,0.00,,,0.00,Wunderground v.1.15,2013-06-18 23:42:00,
2013-06-18 16:45:00,93.8,26.4,29.52,WSW,250,12.0,18.0,9,0.00,,,0.00,Wunderground v.1.15,2013-06-18 23:45:00,
2013-06-18 16:47:00,87.0,28.2,29.53,SW,225,11.0,-999.0,12,0.00,,,0.00,Wunderground v.1.15,2013-06-18 23:47:00,
2013-06-18 16:50:00,92.9,25.7,29.52,West,261,13.0,13.0,9,0.00,,,0.00,Wunderground v.1.15,2013-06-18 23:50:00,
2013-06-18 16:52:00,86.1,29.5,29.53,SW,225,13.0,-999.0,13,0.00,,,0.00,Wunderground v.1.15,2013-06-18 23:52:00,
2013-06-18 16:57:00,85.9,29.3,29.53,SW,225,15.0,-999.0,13,0.00,,,0.00,Wunderground v.1.15,2013-06-18 23:57:00,
2013-06-18 17:00:00,92.5,25.4,29.52,SW,223,14.0,14.0,9,0.00,,,0.00,Wunderground v.1.15,2013-06-19 00:00:00,
2013-06-18 17:02:00,85.5,29.0,29.54,SW,225,15.0,-999.0,13,0.00,,,0.00,Wunderground v.1.15,2013-06-19 00:02:00,
2013-06-18 17:05:00,92.1,25.1,29.52,SW,232,13.0,20.0,9,0.00,,,0.00,Wunderground v.1.15,2013-06-19 00:05:00,
2013-06-18 17:07:00,84.9,30.4,29.54,SW,225,16.0,-999.0,14,0.00,,,0.00,Wunderground v.1.15,2013-06-19 00:07:00,
2013-06-18 17:12:00,84.5,30.1,29.54,WSW,248,13.0,-999.0,14,0.00,,,0.00,Wunderground v.1.15,2013-06-19 00:12:00,
2013-06-18 17:15:00,91.6,24.8,29.52,SSW,192,16.0,22.0,9,0.00,,,0.00,Wunderground v.1.15,2013-06-19 00:15:00,
2013-06-18 17:17:00,84.1,31.4,29.54,SW,225,14.0,-999.0,15,0.00,,,0.00,Wunderground v.1.15,2013-06-19 00:17:00,
2013-06-18 17:20:00,91.0,24.3,29.52,SW,227,16.0,16.0,9,0.00,,,0.00,Wunderground v.1.15,2013-06-19 00:20:00,
2013-06-18 17:22:00,83.8,31.2,29.54,WSW,248,14.0,-999.0,15,0.00,,,0.00,Wunderground v.1.15,2013-06-19 00:22:00,
2013-06-18 17:25:00,91.0,24.3,29.52,SW,227,15.0,24.0,9,0.00,,,0.00,Wunderground v.1.15,2013-06-19 00:25:00,
2013-06-18 17:27:00,83.4,30.9,29.54,WSW,248,16.0,-999.0,15,0.00,,,0.00,Wunderground v.1.15,2013-06-19 00:27:00,
2013-06-18 17:30:00,90.7,26.6,29.52,SW,217,14.0,21.0,10,0.00,,,0.00,Wunderground v.1.15,2013-06-19 00:30:00,
2013-06-18 17:32:00,83.2,30.7,29.54,SW,225,14.0,-999.0,15,0.00,,,0.00,Wunderground v.1.15,2013-06-19 00:32:00,
2013-06-18 17:37:00,82.8,32.0,29.54,SW,225,12.0,-999.0,16,0.00,,,0.00,Wunderground v.1.15,2013-06-19 00:37:00,
2013-06-18 17:40:00,89.9,26.0,29.51,SSW,210,15.0,15.0,10,0.00,,,0.00,Wunderground v.1.15,2013-06-19 00:40:00,
2013-06-18 17:42:00,82.2,31.5,29.54,WSW,248,15.0,-999.0,16,0.00,,,0.00,Wunderground v.1.15,2013-06-19 00:42:00,
2013-06-18 17:45:00,89.7,25.9,29.51,WSW,248,15.0,24.0,10,0.00,,,0.00,Wunderground v.1.15,2013-06-19 00:45:00,
2013-06-18 17:47:00,81.8,31.2,29.54,WSW,248,14.0,-999.0,16,0.00,,,0.00,Wunderground v.1.15,2013-06-19 00:47:00,
2013-06-18 17:52:00,81.4,30.9,29.54,WSW,248,13.0,-999.0,16,0.00,,,0.00,Wunderground v.1.15,2013-06-19 00:52:00,
2013-06-18 17:55:00,88.6,27.3,29.52,WSW,238,15.0,20.0,11,0.00,,,0.00,Wunderground v.1.15,2013-06-19 00:55:00,
2013-06-18 17:57:00,81.1,30.6,29.54,WSW,248,14.0,-999.0,16,0.00,,,0.00,Wunderground v.1.15,2013-06-19 00:57:00,
2013-06-18 18:00:00,88.6,27.3,29.52,South,175,13.0,23.0,11,0.00,,,0.00,Wunderground v.1.15,2013-06-19 01:00:00,
2013-06-18 18:02:00,80.7,31.8,29.54,WSW,248,14.0,-999.0,17,0.00,,,0.00,Wunderground v.1.15,2013-06-19 01:02:00,
2013-06-18 18:05:00,88.0,26.9,29.52,SSW,213,12.0,23.0,11,0.00,,,0.00,Wunderground v.1.15,2013-06-19 01:05:00,
2013-06-18 18:07:00,79.9,31.2,29.54,WSW,248,15.0,-999.0,17,0.00,,,0.00,Wunderground v.1.15,2013-06-19 01:07:00,
2013-06-18 18:12:00,79.6,30.9,29.54,WSW,248,16.0,-999.0,17,0.00,,,0.00,Wunderground v.1.15,2013-06-19 01:12:00,
2013-06-18 18:15:00,87.4,28.5,29.52,SSW,205,13.0,23.0,12,0.00,,,0.00,Wunderground v.1.15,2013-06-19 01:15:00,
2013-06-18 18:17:00,79.2,30.6,29.53,WSW,248,15.0,-999.0,17,0.00,,,0.00,Wunderground v.1.15,2013-06-19 01:17:00,
2013-06-18 18:20:00,87.6,28.7,29.53,SSW,200,13.0,21.0,12,0.00,,,0.00,Wunderground v.1.15,2013-06-19 01:20:00,
2013-06-18 18:22:00,78.8,31.7,29.53,WSW,248,14.0,-999.0,18,0.00,,,0.00,Wunderground v.1.15,2013-06-19 01:22:00,
2013-06-18 18:25:00,87.2,28.4,29.53,SW,233,12.0,21.0,12,0.00,,,0.00,Wunderground v.1.15,2013-06-19 01:25:00,
2013-06-18 18:27:00,78.5,31.4,29.53,WSW,248,16.0,-999.0,18,0.00,,,0.00,Wunderground v.1.15,2013-06-19 01:27:00,
2013-06-18 18:32:00,78.1,33.7,29.53,SW,225,17.0,-999.0,20,0.00,,,0.00,Wunderground v.1.15,2013-06-19 01:32:00,
2013-06-18 18:35:00,86.3,29.6,29.53,SW,228,12.0,22.0,13,0.00,,,0.00,Wunderground v.1.15,2013-06-19 01:35:00,
2013-06-18 18:37:00,77.7,32.1,29.53,WSW,248,17.0,-999.0,19,0.00,,,0.00,Wunderground v.1.15,2013-06-19 01:37:00,
2013-06-18 18:42:00,77.4,31.9,29.53,WSW,248,16.0,-999.0,19,0.00,,,0.00,Wunderground v.1.15,2013-06-19 01:42:00,
2013-06-18 18:45:00,85.7,29.2,29.53,SW,225,14.0,25.0,13,0.00,,,0.00,Wunderground v.1.15,2013-06-19 01:45:00,
2013-06-18 18:47:00,77.0,32.8,29.53,WSW,248,15.0,-999.0,20,0.00,,,0.00,Wunderground v.1.15,2013-06-19 01:47:00,
2013-06-18 18:50:00,85.1,30.5,29.54,SW,224,15.0,22.0,14,0.00,,,0.00,Wunderground v.1.15,2013-06-19 01:50:00,
2013-06-18 18:52:00,77.0,32.8,29.53,SW,225,17.0,-999.0,20,0.00,,,0.00,Wunderground v.1.15,2013-06-19 01:52:00,
2013-06-18 18:57:00,76.7,32.6,29.53,SW,225,17.0,-999.0,20,0.00,,,0.00,Wunderground v.1.15,2013-06-19 01:57:00,
2013-06-18 19:00:00,84.3,29.9,29.54,WSW,242,14.0,14.0,14,0.00,,,0.00,Wunderground v.1.15,2013-06-19 02:00:00,
2013-06-18 19:02:00,76.5,32.4,29.53,SW,225,18.0,-999.0,20,0.00,,,0.00,Wunderground v.1.15,2013-06-19 02:02:00,
2013-06-18 19:05:00,83.8,31.2,29.54,SW,223,14.0,19.0,15,0.00,,,0.00,Wunderground v.1.15,2013-06-19 02:05:00,
2013-06-18 19:07:00,76.5,31.1,29.53,SW,225,17.0,-999.0,19,0.00,,,0.00,Wunderground v.1.15,2013-06-19 02:07:00,
2013-06-18 19:12:00,76.3,32.3,29.53,SW,225,16.0,-999.0,20,0.00,,,0.00,Wunderground v.1.15,2013-06-19 02:12:00,
2013-06-18 19:15:00,83.2,30.7,29.54,SSW,210,15.0,24.0,15,0.00,,,0.00,Wunderground v.1.15,2013-06-19 02:15:00,
2013-06-18 19:17:00,76.0,32.0,29.53,SW,225,15.0,-999.0,20,0.00,,,0.00,Wunderground v.1.15,2013-06-19 02:17:00,
2013-06-18 19:20:00,82.8,30.4,29.54,West,267,14.0,14.0,15,0.00,,,0.00,Wunderground v.1.15,2013-06-19 02:20:00,
2013-06-18 19:22:00,76.0,32.0,29.53,SW,225,17.0,-999.0,20,0.00,,,0.00,Wunderground v.1.15,2013-06-19 02:22:00,
2013-06-18 19:27:00,75.8,31.8,29.53,SW,225,17.0,-999.0,20,0.00,,,0.00,Wunderground v.1.15,2013-06-19 02:27:00,
2013-06-18 19:30:00,82.0,31.4,29.54,West,261,14.0,23.0,16,0.00,,,0.00,Wunderground v.1.15,2013-06-19 02:30:00,
2013-06-18 19:32:00,75.8,30.6,29.53,SW,225,18.0,-999.0,19,0.00,,,0.00,Wunderground v.1.15,2013-06-19 02:32:00,
2013-06-18 19:37:00,75.8,31.8,29.53,SW,225,18.0,-999.0,20,0.00,,,0.00,Wunderground v.1.15,2013-06-19 02:37:00,
2013-06-18 19:40:00,81.2,30.7,29.54,WSW,240,14.0,14.0,16,0.00,,,0.00,Wunderground v.1.15,2013-06-19 02:40:00,
2013-06-18 19:42:00,75.4,30.2,29.53,SW,225,16.0,-999.0,19,0.00,,,0.00,Wunderground v.1.15,2013-06-19 02:42:00,
2013-06-18 19:45:00,80.7,31.8,29.54,WSW,253,14.0,16.0,17,0.00,,,0.00,Wunderground v.1.15,2013-06-19 02:45:00,
2013-06-18 19:47:00,75.4,30.2,29.52,SW,225,14.0,-999.0,19,0.00,,,0.00,Wunderground v.1.15,2013-06-19 02:47:00,
2013-06-18 19:50:00,80.1,31.3,29.54,WSW,241,14.0,20.0,17,0.00,,,0.00,Wunderground v.1.15,2013-06-19 02:50:00,
2013-06-18 19:52:00,75.3,31.4,29.52,SW,225,14.0,-999.0,20,0.00,,,0.00,Wunderground v.1.15,2013-06-19 02:52:00,
2013-06-18 19:57:00,75.1,31.3,29.52,SW,225,13.0,-999.0,20,0.00,,,0.00,Wunderground v.1.15,2013-06-19 02:57:00,
2013-06-18 20:00:00,79.2,30.6,29.54,West,259,16.0,30.0,17,0.00,,,0.00,Wunderground v.1.15,2013-06-19 03:00:00,
2013-06-18 20:02:00,74.9,31.1,29.53,SW,225,12.0,-999.0,20,0.00,,,0.00,Wunderground v.1.15,2013-06-19 03:02:00,
2013-06-18 20:05:00,78.8,30.3,29.53,WSW,241,15.0,30.0,17,0.00,,,0.00,Wunderground v.1.15,2013-06-19 03:05:00,
2013-06-18 20:07:00,74.9,31.1,29.53,SW,225,12.0,-999.0,20,0.00,,,0.00,Wunderground v.1.15,2013-06-19 03:07:00,
2013-06-18 20:12:00,74.9,32.3,29.53,WSW,248,15.0,-999.0,21,0.00,,,0.00,Wunderground v.1.15,2013-06-19 03:12:00,
2013-06-18 20:15:00,78.1,31.1,29.53,WSW,252,16.0,16.0,18,0.00,,,0.00,Wunderground v.1.15,2013-06-19 03:15:00,
2013-06-18 20:17:00,74.9,31.1,29.53,WSW,248,14.0,-999.0,20,0.00,,,0.00,Wunderground v.1.15,2013-06-19 03:17:00,
2013-06-18 20:20:00,77.7,32.1,29.53,SW,236,17.0,30.0,19,0.00,,,0.00,Wunderground v.1.15,2013-06-19 03:20:00,
2013-06-18 20:22:00,75.1,31.3,29.53,SW,225,15.0,-999.0,20,0.00,,,0.00,Wunderground v.1.15,2013-06-19 03:22:00,
2013-06-18 20:25:00,77.6,32.1,29.53,WSW,245,17.0,30.0,19,0.00,,,0.00,Wunderground v.1.15,2013-06-19 03:25:00,
2013-06-18 20:27:00,75.1,32.5,29.53,WSW,248,20.0,-999.0,21,0.00,,,0.00,Wunderground v.1.15,2013-06-19 03:27:00,
2013-06-18 20:32:00,74.7,32.1,29.54,SW,225,14.0,-999.0,21,0.00,,,0.00,Wunderground v.1.15,2013-06-19 03:32:00,
2013-06-18 20:35:00,77.0,32.8,29.53,SW,234,16.0,27.0,20,0.00,,,0.00,Wunderground v.1.15,2013-06-19 03:35:00,
2013-06-18 20:37:00,74.4,31.9,29.54,SW,225,13.0,-999.0,21,0.00,,,0.00,Wunderground v.1.15,2013-06-19 03:37:00,
2013-06-18 20:40:00,76.8,32.7,29.53,WSW,258,17.0,27.0,20,0.00,,,0.00,Wunderground v.1.15,2013-06-19 03:40:00,
2013-06-18 20:42:00,74.2,34.0,29.54,SW,225,15.0,-999.0,23,0.00,,,0.00,Wunderground v.1.15,2013-06-19 03:42:00,
2013-06-18 20:47:00,73.7,34.6,29.54,SW,225,13.0,-999.0,24,0.00,,,0.00,Wunderground v.1.15,2013-06-19 03:47:00,
2013-06-18 20:50:00,76.5,31.1,29.53,WSW,243,18.0,25.0,19,0.00,,,0.00,Wunderground v.1.15,2013-06-19 03:50:00,
2013-06-18 20:52:00,73.5,34.5,29.54,SW,225,13.0,-999.0,24,0.00,,,0.00,Wunderground v.1.15,2013-06-19 03:52:00,
2013-06-18 20:55:00,76.3,32.3,29.53,West,268,17.0,27.0,20,0.00,,,0.00,Wunderground v.1.15,2013-06-19 03:55:00,
2013-06-18 20:57:00,73.2,36.2,29.54,SW,225,15.0,-999.0,26,0.00,,,0.00,Wunderground v.1.15,2013-06-19 03:57:00,
2013-06-18 21:02:00,73.0,35.1,29.53,SW,225,14.0,-999.0,25,0.00,,,0.00,Wunderground v.1.15,2013-06-19 04:02:00,
2013-06-18 21:05:00,76.0,32.0,29.53,SW,227,16.0,24.0,20,0.00,,,0.00,Wunderground v.1.15,2013-06-19 04:05:00,
2013-06-18 21:07:00,73.3,34.3,29.53,SW,225,17.0,-999.0,24,0.00,,,0.00,Wunderground v.1.15,2013-06-19 04:07:00,
2013-06-18 21:10:00,75.8,31.8,29.53,SW,217,17.0,17.0,20,0.00,,,0.00,Wunderground v.1.15,2013-06-19 04:10:00,
2013-06-18 21:12:00,73.2,35.2,29.53,SW,225,16.0,-999.0,25,0.00,,,0.00,Wunderground v.1.15,2013-06-19 04:12:00,
2013-06-18 21:15:00,75.8,30.6,29.53,SW,216,17.0,27.0,19,0.00,,,0.00,Wunderground v.1.15,2013-06-19 04:15:00,
2013-06-18 21:17:00,73.2,35.2,29.53,SW,225,15.0,-999.0,25,0.00,,,0.00,Wunderground v.1.15,2013-06-19 04:17:00,
2013-06-18 21:22:00,72.0,36.2,29.53,SW,225,14.0,-999.0,27,0.00,,,0.00,Wunderground v.1.15,2013-06-19 04:22:00,
2013-06-18 21:25:00,75.6,31.7,29.53,SW,233,18.0,28.0,20,0.00,,,0.00,Wunderground v.1.15,2013-06-19 04:25:00,
2013-06-18 21:27:00,71.8,37.8,29.53,SW,225,15.0,-999.0,29,0.00,,,0.00,Wunderground v.1.15,2013-06-19 04:27:00,
2013-06-18 21:30:00,75.4,30.2,29.53,SW,227,16.0,16.0,19,0.00,,,0.00,Wunderground v.1.15,2013-06-19 04:30:00,
2013-06-18 21:32:00,71.8,36.9,29.53,SW,225,16.0,-999.0,28,0.00,,,0.00,Wunderground v.1.15,2013-06-19 04:32:00,
2013-06-18 21:35:00,75.3,31.4,29.52,SW,226,14.0,19.0,20,0.00,,,0.00,Wunderground v.1.15,2013-06-19 04:35:00,
2013-06-18 21:37:00,71.6,36.8,29.53,SW,225,14.0,-999.0,28,0.00,,,0.00,Wunderground v.1.15,2013-06-19 04:37:00,
2013-06-18 21:40:00,75.1,31.3,29.52,SW,221,14.0,27.0,20,0.00,,,0.00,Wunderground v.1.15,2013-06-19 04:40:00,
2013-06-18 21:42:00,72.1,37.2,29.53,SW,225,16.0,-999.0,28,0.00,,,0.00,Wunderground v.1.15,2013-06-19 04:42:00,
2013-06-18 21:45:00,75.1,31.3,29.52,SW,233,13.0,27.0,20,0.00,,,0.00,Wunderground v.1.15,2013-06-19 04:45:00,
2013-06-18 21:47:00,72.0,37.1,29.53,SW,225,15.0,-999.0,28,0.00,,,0.00,Wunderground v.1.15,2013-06-19 04:47:00,
2013-06-18 21:52:00,72.1,37.2,29.53,SW,225,16.0,-999.0,28,0.00,,,0.00,Wunderground v.1.15,2013-06-19 04:52:00,
2013-06-18 21:55:00,74.9,32.3,29.53,SSW,209,13.0,23.0,21,0.00,,,0.00,Wunderground v.1.15,2013-06-19 04:55:00,
2013-06-18 21:57:00,72.1,37.2,29.53,SW,225,17.0,-999.0,28,0.00,,,0.00,Wunderground v.1.15,2013-06-19 04:57:00,
2013-06-18 22:00:00,74.9,32.3,29.53,WSW,248,14.0,14.0,21,0.00,,,0.00,Wunderground v.1.15,2013-06-19 05:00:00,
2013-06-18 22:02:00,72.1,37.2,29.53,SW,225,16.0,-999.0,28,0.00,,,0.00,Wunderground v.1.15,2013-06-19 05:02:00,
2013-06-18 22:05:00,75.1,31.3,29.53,SW,221,14.0,19.0,20,0.00,,,0.00,Wunderground v.1.15,2013-06-19 05:05:00,
2013-06-18 22:07:00,71.8,36.9,29.53,SW,225,15.0,-999.0,28,0.00,,,0.00,Wunderground v.1.15,2013-06-19 05:07:00,
2013-06-18 22:12:00,71.8,36.9,29.53,SW,225,16.0,-999.0,28,0.00,,,0.00,Wunderground v.1.15,2013-06-19 05:12:00,
2013-06-18 22:15:00,74.7,32.1,29.53,SW,223,17.0,31.0,21,0.00,,,0.00,Wunderground v.1.15,2013-06-19 05:15:00,
2013-06-18 22:17:00,71.8,36.0,29.52,SW,225,16.0,-999.0,27,0.00,,,0.00,Wunderground v.1.15,2013-06-19 05:17:00,
2013-06-18 22:20:00,74.4,31.9,29.54,SSW,212,15.0,23.0,21,0.00,,,0.00,Wunderground v.1.15,2013-06-19 05:20:00,
2013-06-18 22:22:00,71.8,36.9,29.52,SW,225,18.0,-999.0,28,0.00,,,0.00,Wunderground v.1.15,2013-06-19 05:22:00,
2013-06-18 22:27:00,71.6,35.8,29.52,SW,225,17.0,-999.0,27,0.00,,,0.00,Wunderground v.1.15,2013-06-19 05:27:00,
2013-06-18 22:30:00,73.9,33.7,29.54,SW,219,14.0,25.0,23,0.00,,,0.00,Wunderground v.1.15,2013-06-19 05:30:00,
2013-06-18 22:32:00,71.5,35.7,29.53,SW,225,14.0,-999.0,27,0.00,,,0.00,Wunderground v.1.15,2013-06-19 05:32:00,
2013-06-18 22:35:00,73.7,34.6,29.54,WSW,242,13.0,25.0,24,0.00,,,0.00,Wunderground v.1.15,2013-06-19 05:35:00,
2013-06-18 22:37:00,71.5,36.7,29.53,SW,225,16.0,-999.0,28,0.00,,,0.00,Wunderground v.1.15,2013-06-19 05:37:00,
2013-06-18 22:42:00,71.6,36.8,29.53,SW,225,15.0,-999.0,28,0.00,,,0.00,Wunderground v.1.15,2013-06-19 05:42:00,
2013-06-18 22:45:00,73.0,36.1,29.54,SW,233,14.0,27.0,26,0.00,,,0.00,Wunderground v.1.15,2013-06-19 05:45:00,
2013-06-18 22:47:00,71.5,35.7,29.53,SW,225,12.0,-999.0,27,0.00,,,0.00,Wunderground v.1.15,2013-06-19 05:47:00,
2013-06-18 22:52:00,71.5,35.7,29.53,SW,225,12.0,-999.0,27,0.00,,,0.00,Wunderground v.1.15,2013-06-19 05:52:00,
2013-06-18 22:55:00,73.2,35.2,29.53,SW,217,17.0,29.0,25,0.00,,,0.00,Wunderground v.1.15,2013-06-19 05:55:00,
2013-06-18 22:57:00,71.8,36.9,29.53,SW,225,18.0,-999.0,28,0.00,,,0.00,Wunderground v.1.15,2013-06-19 05:57:00,
2013-06-18 23:00:00,73.0,35.1,29.53,WSW,248,15.0,28.0,25,0.00,,,0.00,Wunderground v.1.15,2013-06-19 06:00:00,
2013-06-18 23:02:00,72.0,36.2,29.51,SW,225,17.0,-999.0,27,0.00,,,0.00,Wunderground v.1.15,2013-06-19 06:02:00,
2013-06-18 23:05:00,72.1,36.3,29.53,SW,219,14.0,32.0,27,0.00,,,0.00,Wunderground v.1.15,2013-06-19 06:05:00,
2013-06-18 23:07:00,71.8,36.9,29.51,SW,225,18.0,-999.0,28,0.00,,,0.00,Wunderground v.1.15,2013-06-19 06:07:00,
2013-06-18 23:12:00,71.8,36.0,29.51,SW,225,18.0,-999.0,27,0.00,,,0.00,Wunderground v.1.15,2013-06-19 06:12:00,
2013-06-18 23:15:00,71.8,36.9,29.53,West,267,16.0,16.0,28,0.00,,,0.00,Wunderground v.1.15,2013-06-19 06:15:00,
2013-06-18 23:17:00,72.0,36.2,29.51,SW,225,18.0,-999.0,27,0.00,,,0.00,Wunderground v.1.15,2013-06-19 06:17:00,
2013-06-18 23:20:00,71.6,37.6,29.53,South,186,15.0,15.0,29,0.00,,,0.00,Wunderground v.1.15,2013-06-19 06:20:00,
2013-06-18 23:22:00,72.0,35.2,29.51,SW,225,16.0,-999.0,26,0.00,,,0.00,Wunderground v.1.15,2013-06-19 06:22:00,
2013-06-18 23:25:00,72.0,37.1,29.53,SSW,212,15.0,26.0,28,0.00,,,0.00,Wunderground v.1.15,2013-06-19 06:25:00,
2013-06-18 23:27:00,72.5,34.7,29.51,SW,225,18.0,-999.0,25,0.00,,,0.00,Wunderground v.1.15,2013-06-19 06:27:00,
2013-06-18 23:32:00,72.1,34.3,29.51,SW,225,17.0,-999.0,25,0.00,,,0.00,Wunderground v.1.15,2013-06-19 06:32:00,
2013-06-18 23:35:00,72.1,37.2,29.53,SSW,207,16.0,18.0,28,0.00,,,0.00,Wunderground v.1.15,2013-06-19 06:35:00,
2013-06-18 23:37:00,72.0,34.2,29.51,SW,225,17.0,-999.0,25,0.00,,,0.00,Wunderground v.1.15,2013-06-19 06:37:00,
2013-06-18 23:40:00,72.1,37.2,29.53,SSW,194,16.0,25.0,28,0.00,,,0.00,Wunderground v.1.15,2013-06-19 06:40:00,
2013-06-18 23:42:00,71.8,35.0,29.51,SW,225,20.0,-999.0,26,0.00,,,0.00,Wunderground v.1.15,2013-06-19 06:42:00,
2013-06-18 23:47:00,71.5,35.7,29.52,SW,225,18.0,-999.0,27,0.00,,,0.00,Wunderground v.1.15,2013-06-19 06:47:00,
2013-06-18 23:50:00,72.0,37.1,29.53,SSW,207,16.0,16.0,28,0.00,,,0.00,Wunderground v.1.15,2013-06-19 06:50:00,
2013-06-18 23:52:00,71.1,36.3,29.52,WSW,248,21.0,-999.0,28,0.00,,,0.00,Wunderground v.1.15,2013-06-19 06:52:00,
2013-06-18 23:55:00,72.0,37.1,29.53,SW,229,16.0,19.0,28,0.00,,,0.00,Wunderground v.1.15,2013-06-19 06:55:00,
2013-06-18 23:57:00,71.1,35.4,29.52,SW,225,20.0,-999.0,27,0.00,,,0.00,Wunderground v.1.15,2013-06-19 06:57:00,